Weather History for CWSA - October, 2011

Change the Weather History Date:

Friday, October 21, 2011

  Actual Average Record
Temperature  
Mean Temperature 60 °F -  
Max Temperature 64 °F 53 °F 64 °F (2012)
Min Temperature 55 °F 45 °F 42 °F (1996)
Degree Days  
Heating Degree Days 6    
Growing Degree Days 10 (Base 50)    
Moisture  
Dew Point 58 °F    
Average Humidity 94    
Maximum Humidity 100    
Minimum Humidity 87    
Precipitation  
Precipitation 0.04 in - - ()
Sea Level Pressure  
Sea Level Pressure 29.91 in    
Wind  
Wind Speed 15 mph ()    
Max Wind Speed 24 mph    
Max Gust Speed 30 mph    
Visibility 1.5 miles    
Events Rain    
Averages and records for this station are not official NWS values.
T = Trace of Precipitation, MM = Missing Value Source: Averaged Metar Reports

Daily Weather History Graph

Daily Weather History Graph

Search for Another Location

Airport or City:

Trip Planner

Search our weather history database for the weather conditions in past years. The results will help you decide how hot, cold, wet, or windy it might be!

Date:

Astronomy

Oct. 21, 2011 Rise Set
Actual Time 7:21 AM ADT 6:07 PM ADT
Civil Twilight 6:52 AM ADT 6:36 PM ADT
Nautical Twilight 6:18 AM ADT 7:09 PM ADT
Astronomical Twilight 5:45 AM ADT 7:43 PM ADT
Moon 12:53 AM ADT (10/21) 2:59 PM ADT (10/21)
Length of Visible Light 11h 43m
Length of Day
10h 45m
Waning Crescent, 34% of the Moon is Illuminated
Oct 21
Waning Crescent
Oct 26
New
Nov 2
First Quarter
Nov 10
Full
Nov 18
Last Quarter

Hourly Weather History & Observations

Time (ADT) Temp. Dew Point Humidity Pressure Visibility Wind Dir Wind Speed Gust Speed Precip Events Conditions
12:00 AM 63 °F 61 °F 89% 29.88 in 1 mi SSW 21.9 mph - - Rain Light Rain
12:00 AM 62.6 °F 60.8 °F 94% 29.88 in 1.5 mi South 21.9 mph - N/A Rain Light Rain
12:09 AM 62.6 °F 60.8 °F 94% 29.88 in 1.5 mi South 20.7 mph 27.6 mph N/A Rain Light Rain
12:15 AM 62.6 °F 60.8 °F 94% 29.88 in 1.5 mi South 21.9 mph 27.6 mph N/A   Unknown
12:39 AM 62.6 °F 60.8 °F 94% 29.88 in 1.5 mi South 21.9 mph - N/A   Mostly Cloudy
12:51 AM 62.6 °F 60.8 °F 94% 29.88 in 1.4 mi South 21.9 mph 27.6 mph N/A   Mostly Cloudy
12:55 AM 62.6 °F 60.8 °F 94% 29.88 in 1.4 mi South 20.7 mph - N/A   Overcast
1:00 AM 62.6 °F 60.8 °F 94% 29.88 in 1.4 mi South 20.7 mph - N/A   Overcast
1:11 AM 62.6 °F 60.8 °F 94% 29.88 in 1.4 mi South 21.9 mph 27.6 mph N/A   Overcast
1:42 AM 62.6 °F 60.8 °F 94% 29.87 in 1.1 mi South 21.9 mph - N/A   Overcast
2:00 AM 62.6 °F 60.8 °F 94% 29.88 in 1.0 mi South 21.9 mph 27.6 mph N/A   Overcast
2:13 AM 62.6 °F 60.8 °F 94% 29.87 in 1.0 mi South 21.9 mph 28.8 mph N/A   Overcast
2:52 AM 62.6 °F 60.8 °F 94% 29.87 in 1.4 mi South 23.0 mph 28.8 mph N/A Rain Light Rain
3:00 AM 63 °F 61 °F 91% 29.87 in 1 mi SSW 23.0 mph - -   Unknown Precipitation
3:00 AM 62.6 °F 60.8 °F 94% 29.87 in 1.4 mi SSW 23.0 mph - N/A Rain Light Rain
3:12 AM 62.6 °F 60.8 °F 94% 29.86 in 1.4 mi South 24.2 mph - N/A   Unknown
3:29 AM 62.6 °F 60.8 °F 94% 29.87 in 1.4 mi SW 17.3 mph 29.9 mph N/A Rain Light Rain
3:30 AM 62.6 °F 60.8 °F 94% 29.87 in 1.4 mi WSW 16.1 mph 28.8 mph N/A Rain Light Rain
3:34 AM 60.8 °F 60.8 °F 100% 29.86 in 0.8 mi WSW 11.5 mph 28.8 mph N/A Rain Light Rain
3:35 AM 60.8 °F 59.0 °F 94% 29.88 in 0.6 mi SW 13.8 mph 28.8 mph N/A Rain Light Rain
3:46 AM 62.6 °F 60.8 °F 94% 29.88 in 0.6 mi SW 20.7 mph 29.9 mph N/A Rain Rain
3:52 AM 62.6 °F 60.8 °F 94% 29.88 in 0.6 mi WSW 21.9 mph 28.8 mph N/A Rain Rain
3:57 AM 62.6 °F 60.8 °F 94% 29.89 in 1.0 mi SW 20.7 mph 28.8 mph N/A Rain Rain
3:58 AM 62.6 °F 60.8 °F 94% 29.89 in 1.1 mi SW 20.7 mph 27.6 mph N/A Rain Rain
3:59 AM 62.6 °F 60.8 °F 94% 29.89 in 1.2 mi SW 20.7 mph - N/A Rain Rain
4:00 AM 62.6 °F 60.8 °F 94% 29.89 in 1.4 mi SW 19.6 mph 25.3 mph N/A Rain Rain
4:12 AM 60.8 °F 59.0 °F 94% 29.87 in 1.5 mi SW 16.1 mph - N/A Rain Light Rain
4:16 AM 60.8 °F 59.0 °F 94% 29.88 in 1.5 mi SW 17.3 mph - N/A Rain Light Rain
4:17 AM 60.8 °F 59.0 °F 94% 29.88 in 1.4 mi SW 17.3 mph - N/A Rain Light Rain
4:20 AM 60.8 °F 59.0 °F 94% 29.88 in 1.1 mi SW 17.3 mph - N/A Rain Light Rain
4:23 AM 60.8 °F 59.0 °F 94% 29.88 in 1.0 mi SW 17.3 mph - N/A   Overcast
4:24 AM 60.8 °F 59.0 °F 94% 29.88 in 1.0 mi SW 17.3 mph - N/A Rain Light Rain
4:30 AM 60.8 °F 59.0 °F 94% 29.88 in 0.6 mi SW 15.0 mph - N/A Rain Light Rain
4:33 AM 60.8 °F 59.0 °F 94% 29.88 in 0.6 mi SW 15.0 mph - N/A Rain Light Rain
4:39 AM 60.8 °F 59.0 °F 94% 29.88 in 0.6 mi SW 13.8 mph - N/A Rain Light Rain
4:49 AM 60.8 °F 59.0 °F 94% 29.88 in 1.0 mi SW 13.8 mph - N/A Rain Light Rain
4:52 AM 59.0 °F 59.0 °F 100% 29.89 in 1.0 mi SW 13.8 mph - N/A   Overcast
5:00 AM 59.0 °F 59.0 °F 100% 29.89 in 1.0 mi SW 12.7 mph - N/A   Overcast
5:04 AM 59.0 °F 59.0 °F 100% 29.88 in 1.0 mi SW 11.5 mph - N/A   Overcast
5:05 AM 59.0 °F 59.0 °F 100% 29.88 in 1.0 mi SW 11.5 mph - N/A   Overcast
5:11 AM 59.0 °F 57.2 °F 94% 29.88 in 1.0 mi SW 12.7 mph - N/A   Overcast
5:13 AM 59.0 °F 57.2 °F 94% 29.88 in 0.8 mi SW 11.5 mph - N/A   Overcast
5:54 AM 59.0 °F 57.2 °F 94% 29.88 in 1.2 mi SSW 8.1 mph - N/A   Overcast
6:00 AM 59 °F 58 °F 94% 29.89 in 1 mi SSW 8.1 mph - -   Overcast
6:00 AM 59.0 °F 57.2 °F 94% 29.89 in 1.1 mi SW 8.1 mph - N/A   Overcast
6:08 AM 59.0 °F 57.2 °F 94% 29.89 in 1.1 mi SW 8.1 mph - N/A   Overcast
6:16 AM 59.0 °F 57.2 °F 94% 29.90 in 1.0 mi SW 9.2 mph - N/A   Overcast
6:17 AM 59.0 °F 57.2 °F 94% 29.90 in 1.0 mi SW 8.1 mph - N/A   Overcast
6:20 AM 59.0 °F 57.2 °F 94% 29.90 in 0.8 mi SW 9.2 mph - N/A Rain Light Rain
6:23 AM 59.0 °F 57.2 °F 94% 29.90 in 0.8 mi SW 12.7 mph - N/A   Light Drizzle
6:24 AM 59.0 °F 57.2 °F 94% 29.90 in 0.8 mi SW 11.5 mph - N/A   Overcast
6:29 AM 59.0 °F 57.2 °F 94% 29.90 in 0.8 mi SW 11.5 mph - N/A   Light Drizzle
6:47 AM 59.0 °F 57.2 °F 94% 29.90 in 1.0 mi SW 10.4 mph - N/A   Light Drizzle
6:51 AM 59.0 °F 57.2 °F 94% 29.89 in 1.2 mi SW 10.4 mph - N/A   Light Drizzle
6:52 AM 59.0 °F 57.2 °F 94% 29.89 in 1.2 mi SW 10.4 mph - N/A   Overcast
7:00 AM 59.0 °F 57.2 °F 94% 29.90 in 1.4 mi SW 10.4 mph - N/A   Overcast
7:28 AM 59.0 °F 57.2 °F 94% 29.90 in 2.0 mi SW 10.4 mph - N/A   Overcast
7:33 AM 59.0 °F 57.2 °F 94% 29.90 in 1.4 mi SW 11.5 mph - N/A   Overcast
8:00 AM 59.0 °F 57.2 °F 94% 29.91 in 1.4 mi SW 11.5 mph - N/A   Overcast
8:28 AM 59.0 °F 57.2 °F 94% 29.92 in 1.5 mi SW 9.2 mph - N/A   Overcast
9:00 AM 59 °F 57 °F 92% 29.94 in 2 mi SW 12.7 mph - -   Unknown Precipitation
9:00 AM 59.0 °F 57.2 °F 94% 29.94 in 1.6 mi SW 12.7 mph - N/A   Overcast
10:00 AM 59.0 °F 55.4 °F 88% 29.94 in 4.0 mi SSW 11.5 mph - N/A   Overcast
11:00 AM 59.0 °F 55.4 °F 88% 29.94 in 5.0 mi SSW 11.5 mph - N/A   Overcast
11:13 AM 59.0 °F 55.4 °F 88% 29.94 in 5.0 mi SSW 10.4 mph - N/A   Overcast
11:29 AM 59.0 °F 55.4 °F 88% 29.93 in 4.0 mi South 11.5 mph - N/A   Overcast
12:00 PM 59 °F 56 °F 87% 29.94 in 4 mi SSW 10.4 mph - -   Overcast
12:00 PM 59.0 °F 55.4 °F 88% 29.94 in 4.0 mi SSW 11.5 mph - N/A   Overcast
2:00 PM 60.8 °F 57.2 °F 88% 29.92 in 4.0 mi SSW 13.8 mph - N/A   Mostly Cloudy
3:00 PM 60 °F 57 °F 88% 29.91 in 3 mi SSW 15.0 mph - -  
3:00 PM 60.8 °F 57.2 °F 88% 29.91 in 3.5 mi South 15.0 mph - N/A   Partly Cloudy
3:30 PM 59.0 °F 57.2 °F 94% 29.91 in 2.4 mi South 15.0 mph - N/A   Unknown
3:35 PM 59.0 °F 57.2 °F 94% 29.91 in 1.4 mi South 13.8 mph 19.6 mph N/A   Unknown
3:41 PM 59.0 °F 57.2 °F 94% 29.91 in 1.0 mi South 12.7 mph - N/A   Unknown
3:48 PM 59.0 °F 57.2 °F 94% 29.92 in 0.6 mi SSW 15.0 mph - N/A   Unknown
4:00 PM 59.0 °F 57.2 °F 94% 29.92 in 0.6 mi SSW 16.1 mph - N/A   Unknown
4:07 PM 59.0 °F 57.2 °F 94% 29.92 in 1.0 mi SSW 15.0 mph - N/A   Unknown
4:20 PM 59.0 °F 57.2 °F 94% 29.91 in 2.0 mi SSW 13.8 mph - N/A   Unknown
4:48 PM 59.0 °F 57.2 °F 94% 29.92 in 2.5 mi SSW 16.1 mph - N/A   Mostly Cloudy
5:00 PM 59.0 °F 57.2 °F 94% 29.92 in 2.5 mi South 13.8 mph 19.6 mph N/A   Overcast
5:13 PM 59.0 °F 57.2 °F 94% 29.92 in 2.4 mi SSW 13.8 mph - N/A   Overcast
5:17 PM 59.0 °F 57.2 °F 94% 29.92 in 2.4 mi SSW 15.0 mph - N/A   Overcast
5:38 PM 59.0 °F 57.2 °F 94% 29.93 in 2.5 mi SSW 13.8 mph - N/A   Scattered Clouds
6:00 PM 58 °F 56 °F 92% 29.94 in 2 mi SSW 12.7 mph - -  
6:00 PM 59.0 °F 57.2 °F 94% 29.94 in 2.2 mi SSW 12.7 mph - N/A   Scattered Clouds
6:05 PM 59.0 °F 57.2 °F 94% 29.93 in 2.1 mi SSW 13.8 mph - N/A   Overcast
6:41 PM 59.0 °F 57.2 °F 94% 29.93 in 2.1 mi SSW 13.8 mph - N/A   Overcast
6:42 PM 59.0 °F 57.2 °F 94% 29.93 in 2.1 mi SSW 13.8 mph - N/A   Overcast
6:44 PM 59.0 °F 57.2 °F 94% 29.93 in 2.1 mi SSW 13.8 mph - N/A   Overcast
6:51 PM 59.0 °F 57.2 °F 94% 29.94 in 2.0 mi SSW 13.8 mph - N/A   Overcast
6:53 PM 59.0 °F 57.2 °F 94% 29.94 in 2.0 mi SSW 12.7 mph - N/A   Overcast
6:54 PM 59.0 °F 57.2 °F 94% 29.94 in 2.0 mi SSW 12.7 mph - N/A   Overcast
7:00 PM 59.0 °F 57.2 °F 94% 29.94 in 2.0 mi SSW 13.8 mph - N/A   Overcast
7:04 PM 59.0 °F 57.2 °F 94% 29.94 in 2.0 mi SSW 15.0 mph - N/A   Overcast
7:07 PM 59.0 °F 57.2 °F 94% 29.94 in 2.0 mi SSW 13.8 mph - N/A   Overcast
7:18 PM 59.0 °F 57.2 °F 94% 29.94 in 1.8 mi SSW 11.5 mph - N/A   Overcast
8:00 PM 59.0 °F 57.2 °F 94% 29.95 in 1.5 mi SSW 10.4 mph - N/A   Mostly Cloudy
8:04 PM 59.0 °F 57.2 °F 94% 29.94 in 1.4 mi SSW 10.4 mph - N/A   Overcast
8:11 PM 59.0 °F 57.2 °F 94% 29.94 in 1.1 mi SSW 10.4 mph - N/A   Light Drizzle
8:12 PM 59.0 °F 57.2 °F 94% 29.94 in 1.1 mi SSW 10.4 mph - N/A   Light Drizzle
8:16 PM 59.0 °F 57.2 °F 94% 29.94 in 1.1 mi SSW 11.5 mph - N/A   Overcast
8:19 PM 59.0 °F 57.2 °F 94% 29.94 in 1.4 mi SSW 12.7 mph - N/A   Overcast
8:22 PM 59.0 °F 57.2 °F 94% 29.94 in 1.4 mi SSW 11.5 mph - N/A   Overcast
8:25 PM 59.0 °F 57.2 °F 94% 29.94 in 1.4 mi SSW 11.5 mph - N/A   Overcast
8:35 PM 59.0 °F 57.2 °F 94% 29.94 in 1.8 mi SW 11.5 mph - N/A   Overcast
8:46 PM 59.0 °F 57.2 °F 94% 29.95 in 1.8 mi SW 12.7 mph - N/A   Overcast
8:49 PM 59.0 °F 57.2 °F 94% 29.95 in 1.8 mi SW 12.7 mph - N/A   Overcast
9:00 PM 58 °F 57 °F 94% 29.95 in 2 mi SW 11.5 mph - -   Overcast
9:00 PM 59.0 °F 57.2 °F 94% 29.95 in 2.0 mi SW 11.5 mph - N/A   Overcast
9:03 PM 59.0 °F 57.2 °F 94% 29.95 in 2.0 mi SW 11.5 mph - N/A   Overcast
9:14 PM 59.0 °F 57.2 °F 94% 29.94 in 1.6 mi SW 10.4 mph - N/A   Overcast
9:21 PM 59.0 °F 57.2 °F 94% 29.94 in 1.6 mi SW 10.4 mph - N/A   Overcast
9:34 PM 59.0 °F 57.2 °F 94% 29.95 in 1.4 mi SW 11.5 mph - N/A   Overcast
9:41 PM 59.0 °F 57.2 °F 94% 29.95 in 1.0 mi SW 12.7 mph - N/A   Overcast
9:43 PM 59.0 °F 57.2 °F 94% 29.95 in 0.8 mi SW 11.5 mph - N/A   Overcast
9:44 PM 59.0 °F 57.2 °F 94% 29.95 in 0.6 mi SW 10.4 mph - N/A   Overcast
10:00 PM 59.0 °F 57.2 °F 94% 29.95 in 0.4 mi SW 18.4 mph - N/A   Overcast
10:07 PM 57.2 °F 57.2 °F 100% 29.95 in 0.1 mi WSW 15.0 mph 20.7 mph N/A   Unknown
11:00 PM 55.4 °F 55.4 °F 100% 29.96 in 0.1 mi SW 13.8 mph - N/A   Unknown
11:16 PM 55.4 °F 55.4 °F 100% 29.95 in 0.2 mi SW 11.5 mph - N/A   Overcast
11:50 PM 55.4 °F 53.6 °F 94% 29.95 in 0.8 mi SW 12.7 mph - N/A   Overcast
11:56 PM 55.4 °F 53.6 °F 94% 29.95 in 0.6 mi SW 11.5 mph - N/A   Overcast